TimeCST,TemperatureF,Dew PointF,Humidity,Sea Level PressureIn,VisibilityMPH,Wind Direction,Wind SpeedMPH,Gust SpeedMPH,PrecipitationIn,Events,Conditions,WindDirDegrees,DateUTC
12:15 AM,17.6,8.6,68,30.03,10.0,West,8.1,-,N/A,,Clear,270,2013-01-05 06:15:00
12:35 AM,17.6,8.6,68,30.03,10.0,West,3.5,-,N/A,,Clear,270,2013-01-05 06:35:00
1:15 AM,15.8,8.6,73,30.01,10.0,South,8.1,-,N/A,,Clear,170,2013-01-05 07:15:00
1:35 AM,15.8,8.6,73,30.00,10.0,SSW,9.2,-,N/A,,Clear,200,2013-01-05 07:35:00
1:55 AM,15.8,6.8,68,30.00,10.0,SW,3.5,-,N/A,,Clear,230,2013-01-05 07:55:00
2:15 AM,14.0,6.8,73,29.99,10.0,North,9.2,-,N/A,,Clear,10,2013-01-05 08:15:00
2:35 AM,14.0,6.8,73,29.98,10.0,NNE,3.5,-,N/A,,Clear,20,2013-01-05 08:35:00
2:55 AM,15.8,8.6,73,29.97,10.0,WSW,3.5,-,N/A,,Clear,240,2013-01-05 08:55:00
3:15 AM,12.2,6.8,79,29.97,10.0,NNE,4.6,-,N/A,,Clear,20,2013-01-05 09:15:00
3:35 AM,8.6,5.0,85,29.97,10.0,Calm,Calm,-,N/A,,Clear,0,2013-01-05 09:35:00
3:55 AM,10.4,5.0,79,29.97,10.0,SSE,6.9,-,N/A,,Clear,150,2013-01-05 09:55:00
4:15 AM,12.2,6.8,79,29.95,10.0,SSE,11.5,-,N/A,,Clear,160,2013-01-05 10:15:00
4:35 AM,14.0,8.6,79,29.95,10.0,SSE,9.2,-,N/A,,Clear,150,2013-01-05 10:35:00
4:55 AM,14.0,6.8,73,29.94,10.0,South,6.9,-,N/A,,Clear,190,2013-01-05 10:55:00
5:15 AM,15.8,8.6,73,29.94,10.0,Calm,Calm,-,N/A,,Clear,0,2013-01-05 11:15:00
5:35 AM,15.8,6.8,68,29.94,10.0,WSW,3.5,-,N/A,,Clear,250,2013-01-05 11:35:00
5:55 AM,15.8,6.8,68,29.93,10.0,WSW,5.8,-,N/A,,Clear,250,2013-01-05 11:55:00
6:15 AM,10.4,3.2,73,29.93,10.0,West,5.8,-,N/A,,Clear,260,2013-01-05 12:15:00
6:35 AM,8.6,5.0,85,29.93,10.0,Calm,Calm,-,N/A,,Clear,0,2013-01-05 12:35:00
6:55 AM,10.4,3.2,73,29.93,10.0,NE,3.5,-,N/A,,Clear,50,2013-01-05 12:55:00
7:15 AM,12.2,3.2,67,29.92,10.0,NE,4.6,-,N/A,,Clear,40,2013-01-05 13:15:00
7:35 AM,12.2,3.2,67,29.92,10.0,SW,9.2,-,N/A,,Clear,220,2013-01-05 13:35:00
7:55 AM,15.8,8.6,73,29.92,10.0,SW,8.1,-,N/A,,Clear,220,2013-01-05 13:55:00
8:15 AM,14.0,8.6,79,29.91,10.0,SW,10.4,-,N/A,,Clear,220,2013-01-05 14:15:00
8:35 AM,15.8,8.6,73,29.91,10.0,SW,9.2,-,N/A,,Clear,230,2013-01-05 14:35:00
8:55 AM,15.8,8.6,73,29.91,10.0,WSW,5.8,-,N/A,,Clear,240,2013-01-05 14:55:00
9:15 AM,14.0,6.8,73,29.92,10.0,West,5.8,-,N/A,,Clear,270,2013-01-05 15:15:00
9:55 AM,17.6,8.6,68,29.92,10.0,West,5.8,-,N/A,,Clear,280,2013-01-05 15:55:00
10:15 AM,17.6,8.6,68,29.92,10.0,West,10.4,-,N/A,,Clear,260,2013-01-05 16:15:00
11:15 AM,21.2,15.8,80,29.92,10.0,WNW,6.9,-,N/A,,Clear,300,2013-01-05 17:15:00
11:35 AM,24.8,15.8,69,29.91,10.0,West,9.2,-,N/A,,Clear,270,2013-01-05 17:35:00
11:55 AM,24.8,17.6,74,29.90,10.0,West,9.2,-,N/A,,Clear,280,2013-01-05 17:55:00
12:15 PM,26.6,15.8,64,29.90,10.0,WNW,13.8,-,N/A,,Clear,290,2013-01-05 18:15:00
12:35 PM,26.6,17.6,69,29.89,10.0,WNW,12.7,-,N/A,,Clear,300,2013-01-05 18:35:00
12:55 PM,26.6,17.6,69,29.88,10.0,NW,11.5,-,N/A,,Clear,310,2013-01-05 18:55:00
1:15 PM,26.6,17.6,69,29.87,10.0,NW,18.4,-,N/A,,Clear,310,2013-01-05 19:15:00
1:35 PM,26.6,15.8,64,29.87,10.0,NW,17.3,-,N/A,,Clear,310,2013-01-05 19:35:00
1:55 PM,26.6,15.8,64,29.88,10.0,NW,18.4,-,N/A,,Clear,310,2013-01-05 19:55:00
2:15 PM,24.8,15.8,69,29.88,10.0,WNW,18.4,-,N/A,,Clear,300,2013-01-05 20:15:00
2:35 PM,24.8,15.8,69,29.88,10.0,NW,18.4,-,N/A,,Clear,310,2013-01-05 20:35:00
2:55 PM,24.8,15.8,69,29.89,10.0,NW,17.3,-,N/A,,Clear,310,2013-01-05 20:55:00
3:15 PM,24.8,15.8,69,29.89,10.0,WNW,16.1,-,N/A,,Clear,300,2013-01-05 21:15:00
3:35 PM,24.8,15.8,69,29.90,10.0,NW,20.7,-,N/A,,Partly Cloudy,310,2013-01-05 21:35:00
3:55 PM,23.0,14.0,68,29.92,10.0,NW,21.9,-,N/A,,Partly Cloudy,310,2013-01-05 21:55:00
4:15 PM,21.2,12.2,68,29.93,10.0,NW,23.0,-,N/A,,Scattered Clouds,310,2013-01-05 22:15:00
4:55 PM,19.4,12.2,74,29.95,10.0,NNW,18.4,-,N/A,,Mostly Cloudy,330,2013-01-05 22:55:00
5:15 PM,17.6,12.2,79,29.96,10.0,NNW,19.6,-,N/A,,Overcast,340,2013-01-05 23:15:00
5:35 PM,17.6,10.4,73,29.98,10.0,NNW,18.4,26.5,N/A,,Overcast,330,2013-01-05 23:35:00
5:55 PM,17.6,10.4,73,30.00,10.0,NNW,24.2,28.8,N/A,,Overcast,340,2013-01-05 23:55:00
6:15 PM,14.0,8.6,79,30.02,6.0,NNW,25.3,36.8,N/A,,Overcast,330,2013-01-06 00:15:00
6:35 PM,14.0,8.6,79,30.02,7.0,NNW,18.4,28.8,N/A,,Overcast,330,2013-01-06 00:35:00
6:55 PM,15.8,8.6,73,30.03,7.0,NW,20.7,27.6,N/A,,Overcast,320,2013-01-06 00:55:00
7:15 PM,15.8,10.4,79,30.03,9.0,NNW,24.2,-,N/A,,Overcast,330,2013-01-06 01:15:00
7:35 PM,15.8,10.4,79,30.04,3.0,NNW,25.3,29.9,N/A,,Overcast,330,2013-01-06 01:35:00
7:55 PM,15.8,10.4,79,30.05,8.0,NNW,19.6,-,N/A,,Overcast,330,2013-01-06 01:55:00
8:15 PM,15.8,10.4,79,30.04,10.0,NNW,17.3,-,N/A,,Overcast,330,2013-01-06 02:15:00
8:55 PM,15.8,6.8,68,30.07,10.0,NNW,20.7,-,N/A,,Partly Cloudy,330,2013-01-06 02:55:00
9:15 PM,15.8,5.0,62,30.08,10.0,NW,18.4,-,N/A,,Scattered Clouds,320,2013-01-06 03:15:00
9:35 PM,15.8,5.0,62,30.09,10.0,NW,23.0,-,N/A,,Mostly Cloudy,320,2013-01-06 03:35:00
9:55 PM,15.8,6.8,68,30.10,10.0,NNW,19.6,-,N/A,,Mostly Cloudy,330,2013-01-06 03:55:00
10:15 PM,15.8,6.8,68,30.10,10.0,NW,18.4,24.2,N/A,,Partly Cloudy,320,2013-01-06 04:15:00
10:35 PM,15.8,6.8,68,30.10,10.0,NW,13.8,-,N/A,,Clear,320,2013-01-06 04:35:00
10:55 PM,12.2,5.0,73,30.10,10.0,NW,16.1,-,N/A,,Clear,310,2013-01-06 04:55:00
11:15 PM,12.2,5.0,73,30.11,10.0,NW,17.3,-,N/A,,Clear,310,2013-01-06 05:15:00
11:35 PM,12.2,6.8,79,30.11,10.0,NW,16.1,-,N/A,,Clear,310,2013-01-06 05:35:00
11:55 PM,12.2,6.8,79,30.11,10.0,NW,16.1,-,N/A,,Clear,320,2013-01-06 05:55:00